Minneapolis, MN

12:00 PM CST on December 03, 2016 (GMT -0600)
Minneapolis-Saint Paul International

Weather History for KMSP - November, 2013

Change the Weather History Date:

Saturday, November 2, 2013

  Actual Average Record
Temperature  
Mean Temperature 42 °F 41 °F  
Max Temperature 50 °F 49 °F 72 °F (1978)
Min Temperature 34 °F 33 °F 9 °F (1951)
Degree Days  
Heating Degree Days 23 24  
Month to date heating degree days 43 47  
Since 1 July heating degree days 596 727  
Cooling Degree Days 0 0  
Month to date cooling degree days 0 0  
Year to date cooling degree days 983 753  
Moisture  
Dew Point 31 °F    
Average Humidity 62    
Maximum Humidity 82    
Minimum Humidity 42    
Precipitation  
Precipitation 0.00 in 0.06 in 0.72 in (1902)
Month to date precipitation 0.00 0.12  
Year to date precipitation 30.79 27.80  
Snow  
Snow 0.00 in 0.20 in 5.30 in (1992)
Month to date snowfall 0.0 0.3  
Since 1 July snowfall T 0.9  
Since 1 September snowfall T 0.9  
Snow Depth 0.00 in    
Sea Level Pressure  
Sea Level Pressure 30.04 in    
Wind  
Wind Speed 7 mph (NW)    
Max Wind Speed 20 mph    
Max Gust Speed 24 mph    
Visibility 10 miles    
Events      
T = Trace of Precipitation, MM = Missing Value Source: NWS Daily Summary

Daily Weather History Graph

Daily Weather History Graph

Search for Another Location

Airport or City:

Trip Planner

Search our weather history database for the weather conditions in past years. The results will help you decide how hot, cold, wet, or windy it might be!

Date:

Astronomy

Nov. 02, 2013 Rise Set
Actual Time 7:52 AM CDT 5:59 PM CDT
Civil Twilight 7:22 AM CDT 6:30 PM CDT
Nautical Twilight 6:47 AM CDT 7:04 PM CDT
Astronomical Twilight 6:13 AM CDT 7:38 PM CDT
Moon 6:49 AM CDT (11/2) 5:32 PM CDT (11/2)
Length of Visible Light 11h 07m
Length of Day
10h 06m
Waning Crescent, 1% of the Moon is Illuminated
Nov 2
Waning Crescent
Nov 3
New
Nov 9
First Quarter
Nov 17
Full
Nov 25
Last Quarter

Hourly Weather History & Observations

Time (CDT) Temp. Windchill Dew Point Humidity Pressure Visibility Wind Dir Wind Speed Gust Speed Precip Events Conditions
12:53 AM 39.9 °F 36.7 °F 34.0 °F 79% 29.88 in 10.0 mi West 4.6 mph - N/A   Overcast
1:53 AM 41.0 °F 36.4 °F 35.1 °F 79% 29.89 in 10.0 mi West 6.9 mph - N/A   Overcast
2:53 AM 41.0 °F 33.9 °F 33.1 °F 73% 29.91 in 10.0 mi NW 12.7 mph - N/A   Scattered Clouds
3:53 AM 37.9 °F 30.9 °F 30.0 °F 73% 29.93 in 10.0 mi NW 10.4 mph - N/A   Partly Cloudy
4:53 AM 37.9 °F 32.1 °F 30.0 °F 73% 29.95 in 10.0 mi NW 8.1 mph - N/A   Mostly Cloudy
5:53 AM 37.0 °F 30.4 °F 30.0 °F 76% 29.97 in 10.0 mi NW 9.2 mph - N/A   Partly Cloudy
6:53 AM 35.1 °F 26.9 °F 30.0 °F 82% 30.00 in 10.0 mi NW 11.5 mph 18.4 mph N/A   Partly Cloudy
7:53 AM 34.0 °F 26.6 °F 28.9 °F 82% 30.02 in 10.0 mi NW 9.2 mph - N/A   Clear
8:53 AM 35.1 °F 27.9 °F 30.0 °F 82% 30.04 in 10.0 mi NW 9.2 mph - N/A   Clear
9:53 AM 39.0 °F 34.8 °F 30.0 °F 70% 30.06 in 10.0 mi NW 5.8 mph - N/A   Clear
10:53 AM 42.1 °F 37.1 °F 30.9 °F 65% 30.08 in 10.0 mi NW 8.1 mph - N/A   Partly Cloudy
11:53 AM 43.0 °F 38.2 °F 30.0 °F 60% 30.09 in 10.0 mi NW 8.1 mph - N/A   Clear
12:53 PM 46.0 °F 41.0 °F 30.0 °F 54% 30.09 in 10.0 mi WNW 10.4 mph - N/A   Clear
1:53 PM 48.0 °F - 28.9 °F 48% 30.07 in 10.0 mi Variable 6.9 mph - N/A   Clear
2:53 PM 50.0 °F - 28.9 °F 44% 30.07 in 10.0 mi West 9.2 mph - N/A   Clear
3:53 PM 50.0 °F - 28.0 °F 43% 30.08 in 10.0 mi NW 8.1 mph - N/A   Partly Cloudy
4:53 PM 48.9 °F - 28.9 °F 46% 30.08 in 10.0 mi WNW 9.2 mph - N/A   Partly Cloudy
5:53 PM 46.9 °F - 30.0 °F 52% 30.09 in 10.0 mi West 3.5 mph - N/A   Partly Cloudy
6:53 PM 46.0 °F - 30.9 °F 56% 30.09 in 10.0 mi Calm Calm - N/A   Clear
7:53 PM 42.1 °F - 30.9 °F 65% 30.10 in 10.0 mi Calm Calm - N/A   Clear
8:53 PM 41.0 °F 39.0 °F 30.9 °F 67% 30.10 in 10.0 mi ESE 3.5 mph - N/A   Clear
9:53 PM 39.9 °F 37.8 °F 30.9 °F 70% 30.11 in 10.0 mi ESE 3.5 mph - N/A   Clear
10:53 PM 39.0 °F 36.8 °F 30.9 °F 73% 30.12 in 10.0 mi East 3.5 mph - N/A   Partly Cloudy
11:53 PM 37.9 °F 35.5 °F 30.0 °F 73% 30.12 in 10.0 mi East 3.5 mph - N/A   Mostly Cloudy